Location: Brown Observing Site
(43.4354°N, 116.3366°W)
Time: 17:17:36
(UTC-07:00)

Envisat - Pass Details

Date: 29 October 2019
Orbit: 764 x 766 km, 98.1° (Epoch: 11 November)

Event Time Altitude Azimuth Distance (km) Brightness Sun altitude
Rises 19:15:44 0° 150° (SSE) 3,218 6.0 -6.9°
Reaches altitude 10° 19:18:05 10° 145° (SE) 2,295 5.3 -7.4°
Maximum altitude 19:22:57 50° 71° (ENE) 967 3.2 -8.2°
Drops below altitude 10° 19:27:51 10° 357° (N) 2,310 5.4 -9.1°
Sets 19:30:13 0° 352° (N) 3,240 6.2 -9.5°
